Regional Weather Roundup
Issued by NWS

Home | Current Version | Previous Version | Text Only | Print | Product List | Glossary Off
Versions: 1 2 3 4 5 6 7 8 9 10 11 12 13 14 15 16 17 18 19 20 21 22 23 24 25 26 27 28 29 30 31 32 33 34 35 36 37 38 39 40 41 42 43 44 45 46 47 48 49 50

000
ASUS45 KCYS 062110
RWRWY

WYOMING REGIONAL WEATHER ROUNDUP
NATIONAL WEATHER SERVICE CHEYENNE WY
200 PM MST FRI MAR 06 2015

NOTE:  "FAIR" INDICATES FEW OR NO CLOUDS BELOW 12,000 FEET
WITH NO SIGNIFICANT WEATHER AND/OR OBSTRUCTIONS TO VISIBILITY.

WYZ001-062200-
YELLOWSTONE NATIONAL PARK

CITY           SKY/WX    TMP DP  RH WIND       PRES   REMARKS
LK YELLOWSTONE   N/A     37  16  42 E6        30.34F WCI  32
W YELLOWSTONE  NOT AVBL

$$
WYZ002>013-054>058-071-098>099-062200-
NORTHERN WYOMING

CITY           SKY/WX    TMP DP  RH WIND       PRES   REMARKS
JACKSON        SUNNY     34  16  47 CALM      30.38F
CODY           FAIR      55  16  21 NW15G29   30.19F
GREYBULL       FAIR      50  18  28 S9        30.22F
WORLAND        FAIR      50  18  28 VRB6      30.22F
SHERIDAN       FAIR      52  26  36 W9        30.15F
BUFFALO        FAIR      50  20  30 VRB3      30.18F
GILLETTE       FAIR      52  21  29 NW17G25   30.15F
HULETT         FAIR      52  21  30 W9G22     30.12F
NEWCASTLE      FAIR      52  14  22 NW21G31   30.16F

$$
WYZ014>020-022>026-101>103-062200-
CENTRAL WYOMING

CITY           SKY/WX    TMP DP  RH WIND       PRES   REMARKS
BIG PINEY      FAIR      46  13  26 N21G28    30.34F
PINEDALE       FAIR      37  19  48 NW21G28   30.33F WCI  27
DUBOIS         FAIR      43  14  31 NW15G25   30.27F
LANDER         FAIR      41  24  51 SE7       30.23F
RIVERTON       FAIR      32  20  61 E7        30.26F WCI  26
CASPER         FAIR      39  22  50 SW20G28   30.24F WCI  29
DOUGLAS        FAIR      43  25  49 W9        30.22F

$$
WYZ021-027>030-104>119-062200-
SOUTHERN WYOMING

CITY           SKY/WX    TMP DP  RH WIND       PRES   REMARKS
EVANSTON       FAIR      42  16  34 W12       30.40F
KEMMERER       FAIR      43  16  33 W16       30.38F
FORT BRIDGER   FAIR      44  19  36 W16       30.40F
ROCK SPRINGS   FAIR      41  20  43 W24       30.32F
DIXON          FAIR      43  19  38 SW14      30.40S
RAWLINS        FAIR      38  20  48 W15G28    30.32F WCI  29
SARATOGA       FAIR      37  23  56 W9        30.34F WCI  31
LARAMIE        FAIR      40  19  43 W17       30.26F WCI  31
CHEYENNE       FAIR      48  16  27 W15G25    30.23F
TORRINGTON     FAIR      54  17  23 W18G26    30.20F
PINE BLUFFS    FAIR      52  14  22 NW22G29   30.23F

$$



USA.gov is the U.S. government's official web portal to all federal, state and local government web resources and services.